�������l�o���
Date,Time,MP-1(��Sv/h),MP-2(��Sv/h),MP-3(��Sv/h),MP-4(��Sv/h),MP-5(��Sv/h),MP-6(��Sv/h),MP-7(��Sv/h),MP-8(��Sv/h),����,����(m/s),���J
2019/08/02,00:00,0.750,1.067,0.726,1.283,0.942,0.429,0.740,0.702,��,2.5,��
2019/08/02,00:10,0.749,1.067,0.728,1.286,0.941,0.432,0.742,0.701,���쐼,2.6,��
2019/08/02,00:20,0.748,1.068,0.726,1.283,0.942,0.429,0.742,0.703,��,2.8,��
2019/08/02,00:30,0.748,1.066,0.728,1.285,0.941,0.431,0.742,0.700,��,2.2,��
2019/08/02,00:40,0.749,1.065,0.726,1.287,0.943,0.429,0.739,0.700,��,1.7,��
2019/08/02,00:50,0.749,1.067,0.727,1.286,0.943,0.429,0.741,0.701,���쐼,1.2,��
2019/08/02,01:00,0.748,1.069,0.727,1.286,0.942,0.430,0.742,0.702,���k��,0.9,��
2019/08/02,01:10,0.746,1.065,0.728,1.284,0.942,0.430,0.742,0.701,��,0.6,��
2019/08/02,01:20,0.749,1.070,0.728,1.283,0.941,0.430,0.741,0.701,�k�k��,1.5,��
2019/08/02,01:30,0.748,1.067,0.727,1.285,0.942,0.429,0.741,0.699,�k�k��,2.9,��
2019/08/02,01:40,0.747,1.068,0.727,1.283,0.941,0.431,0.742,0.701,�k��,3.7,��
2019/08/02,01:50,0.747,1.065,0.729,1.286,0.942,0.431,0.741,0.700,�k��,3.1,��
2019/08/02,02:00,0.748,1.068,0.727,1.288,0.942,0.430,0.741,0.701,�k�k��,3.2,��
2019/08/02,02:10,0.748,1.067,0.727,1.286,0.941,0.431,0.742,0.700,�k�k��,3.7,��
2019/08/02,02:20,0.747,1.068,0.728,1.285,0.943,0.429,0.741,0.701,�k�k��,3.4,��
2019/08/02,02:30,0.748,1.068,0.729,1.285,0.941,0.431,0.739,0.702,�k�k��,3.3,��
2019/08/02,02:40,0.749,1.070,0.727,1.287,0.941,0.430,0.741,0.701,�k�k��,3.8,��
2019/08/02,02:50,0.747,1.067,0.727,1.288,0.941,0.432,0.742,0.701,�k��,3.1,��
2019/08/02,03:00,0.748,1.070,0.729,1.287,0.943,0.430,0.739,0.701,�k��,2.0,��
2019/08/02,03:10,0.749,1.067,0.728,1.285,0.940,0.430,0.742,0.701,�k��,1.5,��
2019/08/02,03:20,0.748,1.069,0.728,1.286,0.945,0.431,0.740,0.700,���k��,1.4,��
2019/08/02,03:30,0.746,1.069,0.728,1.289,0.942,0.431,0.740,0.701,���k��,2.3,��
2019/08/02,03:40,0.748,1.068,0.729,1.288,0.942,0.430,0.741,0.701,���k��,1.7,��
2019/08/02,03:50,0.747,1.072,0.728,1.287,0.942,0.430,0.742,0.701,�쐼,0.9,��
2019/08/02,04:00,0.748,1.069,0.728,1.286,0.940,0.429,0.741,0.700,-,CALM,��
2019/08/02,04:10,0.748,1.070,0.726,1.285,0.943,0.430,0.741,0.700,�쐼,0.8,��
2019/08/02,04:20,0.747,1.067,0.728,1.287,0.941,0.429,0.742,0.701,�쐼,1.4,��
2019/08/02,04:30,0.749,1.068,0.727,1.288,0.942,0.431,0.741,0.702,���쐼,2.0,��
2019/08/02,04:40,0.748,1.068,0.728,1.287,0.942,0.429,0.741,0.701,�쐼,1.5,��
2019/08/02,04:50,0.748,1.067,0.727,1.287,0.942,0.431,0.742,0.702,���쐼,1.1,��
2019/08/02,05:00,0.749,1.067,0.728,1.285,0.941,0.431,0.742,0.700,��,1.1,��
2019/08/02,05:10,0.748,1.065,0.727,1.288,0.941,0.429,0.740,0.701,�k�k��,0.9,��
2019/08/02,05:20,0.749,1.068,0.727,1.287,0.941,0.430,0.742,0.701,�k�k��,2.0,��
2019/08/02,05:30,0.748,1.065,0.729,1.289,0.940,0.429,0.739,0.700,�k,1.5,��
2019/08/02,05:40,0.749,1.070,0.727,1.287,0.942,0.430,0.741,0.702,�k�k��,0.9,��
2019/08/02,05:50,0.749,1.070,0.727,1.289,0.940,0.429,0.742,0.701,-,CALM,��
2019/08/02,06:00,0.750,1.069,0.728,1.287,0.941,0.431,0.741,0.701,-,CALM,��
2019/08/02,06:10,0.746,1.072,0.728,1.287,0.943,0.430,0.741,0.702,-,CALM,��
2019/08/02,06:20,0.749,1.070,0.729,1.285,0.942,0.430,0.741,0.701,��쐼,1.2,��
2019/08/02,06:30,0.749,1.068,0.727,1.288,0.942,0.430,0.741,0.701,�쐼,1.2,��
2019/08/02,06:40,0.750,1.068,0.728,1.287,0.939,0.431,0.741,0.700,��쐼,1.5,��
2019/08/02,06:50,0.750,1.069,0.727,1.286,0.942,0.430,0.739,0.702,��쐼,2.9,��
2019/08/02,07:00,0.751,1.067,0.728,1.286,0.942,0.429,0.741,0.701,��쐼,2.0,��
2019/08/02,07:10,0.749,1.067,0.727,1.286,0.946,0.430,0.742,0.700,��,2.0,��
2019/08/02,07:20,0.750,1.065,0.727,1.286,0.941,0.429,0.742,0.700,��쐼,2.2,��
2019/08/02,07:30,0.749,1.065,0.727,1.288,0.942,0.429,0.743,0.702,��,1.9,��
2019/08/02,07:40,0.750,1.066,0.726,1.287,0.941,0.431,0.743,0.702,��,1.4,��
2019/08/02,07:50,0.749,1.067,0.727,1.285,0.942,0.430,0.742,0.701,��,2.3,��
2019/08/02,08:00,0.747,1.065,0.725,1.285,0.941,0.429,0.741,0.703,��쓌,2.6,��
2019/08/02,08:10,0.748,1.063,0.726,1.288,0.941,0.430,0.744,0.704,��쓌,4.0,��
2019/08/02,08:20,0.747,1.066,0.725,1.291,0.940,0.430,0.742,0.703,��쓌,3.6,��
2019/08/02,08:30,0.747,1.066,0.726,1.288,0.941,0.429,0.742,0.701,��쓌,3.5,��
2019/08/02,08:40,0.749,1.067,0.724,1.288,0.943,0.430,0.743,0.700,��쓌,3.9,��
2019/08/02,08:50,0.750,1.065,0.727,1.288,0.945,0.429,0.742,0.700,��쓌,4.0,��
2019/08/02,09:00,0.748,1.069,0.726,1.291,0.944,0.430,0.743,0.700,��,4.3,��
2019/08/02,09:10,0.749,1.067,0.724,1.287,0.944,0.430,0.744,0.700,��,4.6,��
2019/08/02,09:20,0.747,1.066,0.726,1.288,0.942,0.429,0.744,0.700,��,4.6,��
2019/08/02,09:30,0.747,1.066,0.727,1.287,0.944,0.428,0.742,0.700,��,4.3,��
2019/08/02,09:40,0.747,1.065,0.725,1.286,0.944,0.429,0.744,0.701,��쓌,4.1,��
2019/08/02,09:50,0.749,1.065,0.725,1.287,0.944,0.429,0.740,0.702,��쓌,4.2,��
2019/08/02,10:00,0.746,1.067,0.727,1.286,0.943,0.428,0.739,0.700,��쓌,5.4,��
2019/08/02,10:10,0.749,1.068,0.728,1.289,0.946,0.428,0.740,0.700,��쓌,4.6,��
2019/08/02,10:20,0.745,1.068,0.728,1.289,0.944,0.429,0.740,0.699,��쓌,4.9,��
2019/08/02,10:30,0.750,1.065,0.729,1.290,0.946,0.429,0.740,0.700,��쓌,3.8,��
2019/08/02,10:40,0.751,1.066,0.729,1.289,0.945,0.429,0.741,0.700,��쓌,4.3,��
2019/08/02,10:50,0.750,1.070,0.731,1.291,0.945,0.429,0.740,0.700,��쓌,4.5,��
2019/08/02,11:00,0.751,1.067,0.732,1.292,0.948,0.430,0.741,0.699,��쓌,5.0,��
2019/08/02,11:10,0.751,1.070,0.730,1.289,0.948,0.429,0.743,0.700,��쓌,4.2,��
2019/08/02,11:20,0.753,1.069,0.730,1.289,0.949,0.429,0.742,0.702,��쓌,4.7,��
2019/08/02,11:30,0.753,1.072,0.734,1.287,0.948,0.431,0.742,0.701,��쓌,4.0,��
2019/08/02,11:40,0.752,1.073,0.733,1.286,0.947,0.429,0.742,0.701,��쓌,4.0,��
2019/08/02,11:50,0.751,1.073,0.732,1.288,0.951,0.430,0.742,0.703,�쓌,4.3,��
2019/08/02,12:00,0.753,1.074,0.732,1.288,0.950,0.430,0.742,0.702,�쓌,4.1,��
2019/08/02,12:10,0.754,1.076,0.734,1.291,0.950,0.430,0.742,0.702,�쓌,5.1,��
2019/08/02,12:20,0.752,1.077,0.732,1.293,0.949,0.432,0.742,0.702,�쓌,6.5,��
2019/08/02,12:30,0.753,1.074,0.733,1.290,0.952,0.429,0.742,0.704,�쓌,4.8,��
2019/08/02,12:40,0.751,1.073,0.734,1.289,0.952,0.430,0.743,0.702,�쓌,5.7,��
2019/08/02,12:50,0.752,1.074,0.733,1.290,0.949,0.429,0.743,0.704,��쓌,5.1,��
2019/08/02,13:00,0.752,1.078,0.732,1.291,0.949,0.430,0.745,0.703,��쓌,6.0,��
2019/08/02,13:10,0.754,1.075,0.732,1.293,0.950,0.429,0.746,0.704,��쓌,6.5,��
2019/08/02,13:20,0.753,1.074,0.734,1.292,0.951,0.430,0.746,0.703,��쓌,5.6,��
2019/08/02,13:30,0.754,1.076,0.735,1.289,0.951,0.429,0.745,0.705,��쓌,5.3,��
2019/08/02,13:40,0.754,1.076,0.734,1.290,0.953,0.430,0.745,0.703,��쓌,5.3,��
2019/08/02,13:50,0.753,1.073,0.734,1.291,0.951,0.432,0.746,0.704,��쓌,4.7,��
2019/08/02,14:00,0.754,1.075,0.733,1.291,0.953,0.429,0.745,0.704,�쓌,4.8,��
2019/08/02,14:10,0.753,1.073,0.732,1.295,0.954,0.429,0.744,0.704,��쓌,6.1,��
2019/08/02,14:20,0.751,1.074,0.732,1.293,0.953,0.431,0.746,0.704,��쓌,6.2,��
2019/08/02,14:30,0.755,1.073,0.733,1.291,0.953,0.428,0.745,0.703,��쓌,7.1,��
2019/08/02,14:40,0.755,1.073,0.732,1.291,0.955,0.429,0.743,0.703,��쓌,7.4,��
2019/08/02,14:50,0.754,1.078,0.732,1.293,0.953,0.429,0.744,0.702,��쓌,6.8,��
2019/08/02,15:00,0.753,1.076,0.732,1.293,0.953,0.428,0.744,0.702,��쓌,5.4,��
2019/08/02,15:10,0.753,1.075,0.734,1.291,0.954,0.429,0.742,0.701,��쓌,5.2,��
2019/08/02,15:20,0.754,1.077,0.732,1.291,0.953,0.429,0.741,0.701,��쓌,6.1,��
2019/08/02,15:30,0.752,1.075,0.731,1.294,0.952,0.427,0.743,0.702,��쓌,6.0,��
2019/08/02,15:40,0.753,1.075,0.732,1.294,0.952,0.427,0.743,0.704,��,5.9,��
2019/08/02,15:50,0.753,1.074,0.733,1.295,0.954,0.427,0.744,0.702,��,4.5,��
2019/08/02,16:00,0.753,1.077,0.734,1.294,0.953,0.427,0.742,0.702,��쓌,6.5,��
2019/08/02,16:10,0.753,1.074,0.733,1.295,0.954,0.428,0.743,0.704,��,5.7,��
2019/08/02,16:20,0.752,1.077,0.734,1.296,0.953,0.429,0.742,0.702,��,5.5,��
2019/08/02,16:30,0.752,1.079,0.733,1.296,0.952,0.430,0.744,0.702,��,5.4,��
2019/08/02,16:40,0.752,1.077,0.733,1.295,0.954,0.428,0.742,0.702,��쓌,4.9,��
2019/08/02,16:50,0.752,1.078,0.733,1.296,0.952,0.430,0.743,0.704,��쓌,4.3,��
2019/08/02,17:00,0.753,1.075,0.732,1.294,0.953,0.428,0.741,0.701,��쓌,3.7,��
2019/08/02,17:10,0.752,1.078,0.732,1.295,0.951,0.427,0.743,0.701,��쓌,4.1,��
2019/08/02,17:20,0.751,1.076,0.733,1.293,0.953,0.428,0.742,0.701,��,3.6,��
2019/08/02,17:30,0.752,1.077,0.733,1.295,0.954,0.428,0.743,0.703,��쓌,4.6,��
2019/08/02,17:40,0.751,1.077,0.734,1.295,0.954,0.427,0.741,0.702,��쓌,3.2,��
2019/08/02,17:50,0.753,1.076,0.735,1.296,0.951,0.429,0.742,0.701,��쓌,2.2,��
2019/08/02,18:00,0.750,1.076,0.733,1.294,0.953,0.428,0.742,0.701,��쓌,3.4,��
2019/08/02,18:10,0.749,1.077,0.732,1.293,0.954,0.428,0.741,0.701,��쓌,4.0,��
2019/08/02,18:20,0.753,1.078,0.732,1.295,0.953,0.429,0.742,0.701,��쓌,4.0,��
2019/08/02,18:30,0.755,1.080,0.731,1.292,0.951,0.427,0.743,0.701,��,2.2,��
2019/08/02,18:40,0.753,1.075,0.731,1.292,0.951,0.428,0.741,0.702,��쓌,1.5,��
2019/08/02,18:50,0.753,1.080,0.733,1.294,0.953,0.427,0.741,0.700,��,1.5,��
2019/08/02,19:00,0.752,1.078,0.733,1.293,0.955,0.428,0.741,0.702,��,0.6,��
2019/08/02,19:10,0.750,1.080,0.733,1.292,0.955,0.430,0.740,0.700,���k��,0.9,��
2019/08/02,19:20,0.751,1.080,0.733,1.295,0.952,0.430,0.741,0.700,�k��,1.2,��
2019/08/02,19:30,0.752,1.082,0.733,1.294,0.955,0.430,0.742,0.702,�k��,0.6,��
2019/08/02,19:40,0.755,1.079,0.735,1.292,0.954,0.431,0.742,0.702,�k��,1.7,��
2019/08/02,19:50,0.752,1.078,0.732,1.296,0.954,0.428,0.744,0.701,�k��,0.8,��
2019/08/02,20:00,0.754,1.078,0.734,1.294,0.954,0.431,0.743,0.701,���k��,0.9,��
2019/08/02,20:10,0.755,1.081,0.734,1.297,0.953,0.429,0.741,0.703,-,CALM,��
2019/08/02,20:20,0.754,1.080,0.736,1.295,0.954,0.430,0.744,0.703,���쐼,0.6,��
2019/08/02,20:30,0.754,1.081,0.733,1.297,0.953,0.430,0.742,0.701,-,CALM,��
2019/08/02,20:40,0.754,1.081,0.735,1.296,0.954,0.429,0.742,0.703,-,CALM,��
2019/08/02,20:50,0.753,1.081,0.735,1.294,0.953,0.429,0.743,0.702,��,0.6,��
2019/08/02,21:00,0.753,1.081,0.736,1.295,0.955,0.429,0.742,0.704,��쐼,1.2,��
2019/08/02,21:10,0.753,1.081,0.734,1.296,0.953,0.429,0.743,0.704,�쐼,1.2,��
2019/08/02,21:20,0.755,1.079,0.734,1.294,0.952,0.430,0.743,0.703,�쐼,1.2,��
2019/08/02,21:30,0.754,1.080,0.735,1.298,0.955,0.431,0.744,0.703,�쐼,1.4,��
2019/08/02,21:40,0.757,1.080,0.736,1.297,0.954,0.431,0.742,0.703,�쐼,0.6,��
2019/08/02,21:50,0.754,1.079,0.735,1.298,0.953,0.431,0.743,0.705,��쐼,1.4,��
2019/08/02,22:00,0.756,1.080,0.736,1.299,0.954,0.431,0.743,0.704,��쐼,1.5,��
2019/08/02,22:10,0.756,1.080,0.736,1.298,0.958,0.431,0.742,0.703,��쓌,1.7,��
2019/08/02,22:20,0.754,1.080,0.734,1.295,0.954,0.431,0.742,0.702,��,0.9,��
2019/08/02,22:30,0.755,1.077,0.734,1.299,0.954,0.432,0.743,0.702,�쐼,1.1,��
2019/08/02,22:40,0.754,1.079,0.736,1.298,0.954,0.430,0.743,0.703,��쐼,1.4,��
2019/08/02,22:50,0.755,1.079,0.735,1.298,0.954,0.429,0.745,0.702,��쐼,1.7,��
2019/08/02,23:00,0.755,1.079,0.737,1.298,0.953,0.430,0.743,0.704,�쐼,1.7,��
2019/08/02,23:10,0.754,1.080,0.737,1.299,0.954,0.431,0.744,0.703,���쐼,0.9,��
2019/08/02,23:20,0.753,1.079,0.735,1.299,0.954,0.432,0.743,0.703,���쐼,0.6,��
2019/08/02,23:30,0.757,1.077,0.735,1.297,0.955,0.432,0.746,0.702,�k�k��,1.1,��
2019/08/02,23:40,0.754,1.082,0.736,1.297,0.954,0.432,0.744,0.703,�k�k��,1.5,��
2019/08/02,23:50,0.753,1.078,0.735,1.298,0.953,0.431,0.744,0.704,�k�k��,1.5,��
